Tracking 26442 objects as of 7-Dec-2022
HD Live streaming from Space Station
objects crossing your sky now

NOAA 16 DEB

Track NOAA 16 DEB now!
10-day predictions


NORAD ID: 41200
Int'l Code: 2000-055DD
Perigee: 790.5 km
Apogee: 825.7 km
Inclination: 98.9 °
Period: 100.9 minutes
Semi major axis: 7179 km
RCS: Unknown
Launch date: September 21, 2000
Source: United States (US)
Launch site: AIR FORCE WESTERN TEST RANGE (AFWTR)

Note: This is SATELLITE DEBRIS
aabbcc
Your satellite tracking list
Your tracking list is empty




NASA's NSSDC Master Catalog

Two Line Element Set (TLE):
1 41200U 00055DD  22340.27121643  .00006165  00000-0  25310-2 0  9995
2 41200  98.8570  90.2396 0024536 286.7255  73.1233 14.27238013363046
Source of the keplerian elements: AFSPC